| time (UTC) | temp F | wind direction | speed MPH | gust MPH | rain 1hr in | rain 24hr in | rain mn in | humidity % | barometer mb |
| 20260906223044 | 91 | 75 | 0.0 | 3.0 | 0.00 | 0.00 | 0.00 | 31 | 1000.4 |
| 20260906221545 | 91 | 90 | 0.0 | 3.0 | 0.00 | 0.00 | 0.00 | 31 | 1000.6 |
| 20260906220115 | 92 | 340 | 0.0 | 4.0 | 0.00 | 0.00 | 0.00 | 30 | 1000.8 |
| 20260906214541 | 92 | 71 | 0.0 | 10.0 | 0.00 | 0.00 | 0.00 | 31 | 1001.0 |
| 20260906213044 | 91 | 61 | 0.0 | 4.0 | 0.00 | 0.00 | 0.00 | 31 | 1001.3 |
| 20260906211539 | 90 | 110 | 0.0 | 3.0 | 0.00 | 0.00 | 0.00 | 32 | 1001.6 |
| 20260906210053 | 89 | 123 | 1.0 | 8.0 | 0.00 | 0.00 | 0.00 | 31 | 1001.8 |
| 20260906204532 | 91 | 78 | 0.0 | 5.0 | 0.00 | 0.00 | 0.00 | 29 | 1001.9 |
| 20260906203034 | 90 | 98 | 0.0 | 8.0 | 0.00 | 0.00 | 0.00 | 31 | 1002.0 |
| 20260906201628 | 89 | 115 | 0.0 | 6.0 | 0.00 | 0.00 | 0.00 | 32 | 1002.1 |
| 20260906200036 | 88 | 77 | 0.0 | 7.0 | 0.00 | 0.00 | 0.00 | 34 | 1002.3 |
| 20260906194521 | 88 | 55 | 0.0 | 5.0 | 0.00 | 0.00 | 0.00 | 34 | 1002.3 |
| 20260906193019 | 88 | 5 | 0.0 | 8.0 | 0.00 | 0.00 | 0.00 | 34 | 1002.6 |
| 20260906191516 | 88 | 99 | 0.0 | 4.0 | 0.00 | 0.00 | 0.00 | 35 | 1002.8 |
| 20260906190012 | 87 | 73 | 0.0 | 5.0 | 0.00 | 0.00 | 0.00 | 34 | 1003.0 |
| 20260906184509 | 86 | 320 | 0.0 | 5.0 | 0.00 | 0.00 | 0.00 | 35 | 1003.4 |
| 20260906183008 | 86 | 42 | 0.0 | 1.0 | 0.00 | 0.00 | 0.00 | 36 | 1003.7 |
| 20260906181501 | 84 | 84 | 0.0 | 0.0 | 0.00 | 0.00 | 0.00 | 38 | 1003.9 |
| 20260906180059 | 84 | 115 | 0.0 | 7.0 | 0.00 | 0.00 | 0.00 | 39 | 1004.1 |
| 20260906174556 | 83 | 126 | 0.0 | 0.0 | 0.00 | 0.00 | 0.00 | 43 | 1004.5 |
| 20260906173053 | 82 | 37 | 0.0 | 0.0 | 0.00 | 0.00 | 0.00 | 45 | 1004.7 |
| 20260906171603 | 81 | 74 | 0.0 | 6.0 | 0.00 | 0.00 | 0.00 | 45 | 1005.0 |
| 20260906170054 | 80 | 144 | 0.0 | 4.0 | 0.00 | 0.00 | 0.00 | 43 | 1005.4 |
| 20260906164554 | 79 | 187 | 0.0 | 4.0 | 0.00 | 0.00 | 0.00 | 47 | 1005.5 |
| 20260906163050 | 78 | 101 | 0.0 | 0.0 | 0.00 | 0.00 | 0.00 | 50 | 1005.5 |
| 20260906161540 | 77 | 82 | 0.0 | 4.0 | 0.00 | 0.00 | 0.00 | 52 | 1005.3 |
| 20260906160048 | 76 | 104 | 0.0 | 3.0 | 0.00 | 0.00 | 0.00 | 56 | 1005.4 |
| 20260906154535 | 75 | 105 | 0.0 | 2.0 | 0.00 | 0.00 | 0.00 | 60 | 1005.3 |
| 20260906153029 | 73 | 59 | 0.0 | 0.0 | 0.00 | 0.00 | 0.00 | 63 | 1005.3 |
| 20260906151526 | 70 | 301 | 0.0 | 0.0 | 0.00 | 0.00 | 0.00 | 67 | 1005.4 |
| 20260906150043 | 68 | 340 | 0.0 | 0.0 | 0.00 | 0.00 | 0.00 | 73 | 1005.6 |
| 20260906144534 | 67 | 340 | 0.0 | 0.0 | 0.00 | 0.00 | 0.00 | 77 | 1005.6 |
| 20260906143033 | 65 | 340 | 0.0 | 0.0 | 0.00 | 0.00 | 0.00 | 80 | 1005.7 |
| 20260906141535 | 63 | 325 | 0.0 | 0.0 | 0.00 | 0.00 | 0.00 | 83 | 1005.8 |
| 20260906134521 | 60 | 325 | 0.0 | 0.0 | 0.00 | 0.00 | 0.00 | 83 | 1005.8 |
| 20260906133020 | 58 | 325 | 0.0 | 0.0 | 0.00 | 0.00 | 0.00 | 81 | 1005.7 |
| 20260906131526 | 58 | 326 | 0.0 | 0.0 | 0.00 | 0.00 | 0.00 | 77 | 1005.7 |
| 20260906130032 | 58 | 326 | 0.0 | 0.0 | 0.00 | 0.00 | 0.00 | 78 | 1005.6 |
| 20260906124515 | 59 | 326 | 0.0 | 0.0 | 0.00 | 0.00 | 0.00 | 77 | 1005.5 |
| 20260906123013 | 59 | 326 | 0.0 | 0.0 | 0.00 | 0.00 | 0.00 | 75 | 1005.4 |
| 20260906121513 | 59 | 326 | 0.0 | 0.0 | 0.00 | 0.00 | 0.00 | 74 | 1005.5 |
| 20260906120010 | 59 | 326 | 0.0 | 0.0 | 0.00 | 0.00 | 0.00 | 74 | 1005.3 |
| 20260906114510 | 60 | 326 | 0.0 | 0.0 | 0.00 | 0.00 | 0.00 | 73 | 1005.4 |
| 20260906113006 | 60 | 326 | 0.0 | 0.0 | 0.00 | 0.00 | 0.00 | 74 | 1005.2 |
| 20260906111504 | 61 | 326 | 0.0 | 0.0 | 0.00 | 0.00 | 0.00 | 75 | 1005.0 |
| 20260906110002 | 61 | 326 | 0.0 | 0.0 | 0.00 | 0.00 | 0.00 | 74 | 1005.1 |
| 20260906104500 | 61 | 326 | 0.0 | 0.0 | 0.00 | 0.00 | 0.00 | 75 | 1004.9 |
| 20260906103100 | 61 | 326 | 0.0 | 0.0 | 0.00 | 0.00 | 0.00 | 74 | 1005.0 |
| 20260906101558 | 61 | 320 | 0.0 | 0.0 | 0.00 | 0.00 | 0.00 | 68 | 1005.0 |
| 20260906100054 | 61 | 320 | 0.0 | 0.0 | 0.00 | 0.00 | 0.00 | 64 | 1004.8 |
| 20260906094631 | 62 | 320 | 0.0 | 0.0 | 0.00 | 0.00 | 0.00 | 63 | 1005.0 |
| 20260906093101 | 63 | 320 | 0.0 | 0.0 | 0.00 | 0.00 | 0.00 | 63 | 1004.9 |
| 20260906091548 | 63 | 320 | 0.0 | 0.0 | 0.00 | 0.00 | 0.00 | 61 | 1004.8 |
| 20260906090044 | 64 | 320 | 0.0 | 0.0 | 0.00 | 0.00 | 0.00 | 60 | 1004.6 |
| 20260906084541 | 65 | 320 | 0.0 | 0.0 | 0.00 | 0.00 | 0.00 | 58 | 1004.6 |
| 20260906083038 | 66 | 298 | 0.0 | 0.0 | 0.00 | 0.00 | 0.00 | 58 | 1004.4 |
| 20260906081546 | 66 | 298 | 0.0 | 0.0 | 0.00 | 0.00 | 0.00 | 56 | 1004.2 |
| 20260906080036 | 67 | 298 | 0.0 | 0.0 | 0.00 | 0.00 | 0.00 | 55 | 1004.1 |
| 20260906074534 | 67 | 298 | 0.0 | 0.0 | 0.00 | 0.00 | 0.00 | 54 | 1004.0 |
| 20260906073033 | 67 | 298 | 0.0 | 0.0 | 0.00 | 0.00 | 0.00 | 56 | 1004.0 |
| 20260906071532 | 67 | 298 | 0.0 | 0.0 | 0.00 | 0.00 | 0.00 | 57 | 1004.0 |
| 20260906070027 | 67 | 246 | 0.0 | 0.0 | 0.00 | 0.00 | 0.00 | 59 | 1004.1 |
| 20260906064624 | 69 | 246 | 0.0 | 0.0 | 0.00 | 0.00 | 0.00 | 57 | 1004.2 |
| 20260906063028 | 70 | 246 | 0.0 | 0.0 | 0.00 | 0.00 | 0.00 | 55 | 1004.4 |
| 20260906061532 | 70 | 246 | 0.0 | 0.0 | 0.00 | 0.00 | 0.00 | 55 | 1004.4 |
| 20260906060016 | 71 | 244 | 0.0 | 5.0 | 0.00 | 0.00 | 0.00 | 53 | 1004.5 |
| 20260906054517 | 71 | 254 | 0.0 | 3.0 | 0.00 | 0.00 | 0.00 | 53 | 1004.5 |
| 20260906053018 | 72 | 299 | 0.0 | 0.0 | 0.00 | 0.00 | 0.00 | 53 | 1004.2 |
| 20260906051515 | 72 | 256 | 0.0 | 0.0 | 0.00 | 0.00 | 0.00 | 49 | 1005.1 |
| 20260906050019 | 73 | 212 | 0.0 | 0.0 | 0.00 | 0.00 | 0.00 | 48 | 1005.6 |
| 20260906044513 | 72 | 77 | 0.0 | 0.0 | 0.00 | 0.00 | 0.00 | 43 | 1005.4 |
| 20260906043012 | 72 | 69 | 0.0 | 0.0 | 0.00 | 0.00 | 0.00 | 42 | 1004.7 |
| 20260906041512 | 73 | 69 | 0.0 | 0.0 | 0.00 | 0.00 | 0.00 | 43 | 1004.3 |
| 20260906040011 | 73 | 69 | 0.0 | 0.0 | 0.00 | 0.00 | 0.00 | 40 | 1004.4 |
| 20260906034512 | 73 | 71 | 0.0 | 0.0 | 0.00 | 0.00 | 0.00 | 38 | 1004.1 |
| 20260906033010 | 75 | 327 | 0.0 | 0.0 | 0.00 | 0.00 | 0.00 | 37 | 1003.9 |
| 20260906031509 | 76 | 319 | 0.0 | 0.0 | 0.00 | 0.00 | 0.00 | 33 | 1003.7 |
| 20260906030009 | 77 | 319 | 0.0 | 0.0 | 0.00 | 0.00 | 0.00 | 32 | 1003.3 |
| 20260906024508 | 79 | 319 | 0.0 | 0.0 | 0.00 | 0.00 | 0.00 | 30 | 1003.0 |
| 20260906023010 | 80 | 319 | 0.0 | 0.0 | 0.00 | 0.00 | 0.00 | 29 | 1002.7 |
| 20260906021507 | 80 | 319 | 0.0 | 2.0 | 0.00 | 0.00 | 0.00 | 28 | 1002.6 |
| 20260906020006 | 81 | 330 | 0.0 | 1.0 | 0.00 | 0.00 | 0.00 | 28 | 1002.5 |
| 20260906014506 | 81 | 246 | 0.0 | 3.0 | 0.00 | 0.00 | 0.00 | 29 | 1002.4 |
| 20260906013005 | 82 | 313 | 1.0 | 6.0 | 0.00 | 0.00 | 0.00 | 28 | 1002.3 |
| 20260906011511 | 83 | 331 | 0.0 | 3.0 | 0.00 | 0.00 | 0.00 | 27 | 1002.3 |
| 20260906010004 | 84 | 281 | 0.0 | 4.0 | 0.00 | 0.00 | 0.00 | 27 | 1002.3 |
| 20260906004503 | 85 | 317 | 0.0 | 7.0 | 0.00 | 0.00 | 0.00 | 25 | 1002.1 |
| 20260906001502 | 89 | 5 | 0.0 | 1.0 | 0.00 | 0.00 | 0.00 | 23 | 1002.1 |
| 20260906000001 | 91 | 18 | 0.0 | 0.0 | 0.00 | 0.00 | 0.00 | 23 | 1002.0 |
| 20260905234502 | 92 | 65 | 0.0 | 0.0 | 0.00 | 0.00 | 0.00 | 22 | 1002.0 |
| 20260905233111 | 93 | 65 | 0.0 | 0.0 | 0.00 | 0.00 | 0.00 | 21 | 1002.0 |
| 20260905231600 | 94 | 38 | 0.0 | 0.0 | 0.00 | 0.00 | 0.00 | 20 | 1001.8 |
| 20260905230059 | 95 | 113 | 0.0 | 3.0 | 0.00 | 0.00 | 0.00 | 18 | 1001.8 |
| 20260905224608 | 94 | 87 | 0.0 | 4.0 | 0.00 | 0.00 | 0.00 | 18 | 1001.8 |